ATLAS 5 CENTAUR DEB, 49368

Orbit data source: Space-Track

ATLAS 5 CENTAUR DEB, 49368 is space debris in HEO originally from a launch on Wed, 17 Oct 2018 UTC launched from the Air Force Eastern Test Range (AFETR). Debris objects in space refer to the collection of defunct objects orbiting the Earth. Examples of debris include non-operational satellites, rocket bodies, and fragments generated from explosions, collisions, or faulty payload assembly.

Loading next visibility...
Identifier
49368, 2018-079FV
Orbit
HEO
Country
Flag of USUS
Related business
Flag of USUnited Launch Alliance/Lockheed Martin (US)
Manufacturer
ULA Decatur
Mission
Spacecraft
Bus & Motor
Unknown
Mass
Unknown
Launch date (UTC)
2018-10-17 (8 years ago)
Launch vehicle
Unknown
Launch site
Air Force Eastern Test Range (AFETR)
Object type
Payload
Rocket body
Debris
Shape & HBR
Unknown shape, 1.1 m
Radar Cross Section
RCS unknown

Expand to show TLE details & history
Last TLE update: 1 year ago

TLE from 1 year ago
0 ATLAS 5 CENTAUR DEB
1 49368U 18079FV  25161.90368572 -.00000093  00000-0  00000-0 0  9993
2 49368  12.1789  88.5109 4344838 210.0375 115.6332  1.77099486  7541
Epoch: 2025-06-10T21:41Z
TLE epoch observation values (Epoch: 2025-06-10T21:41:18.446Z)
Latitude
0.00001°
Longitude
-136.39894°
Altitude
31,164.827 km
Speed
2.724 km/s
True Right ascension
05h 53m 41s
True Declination
0° 00' 00"
Sunlit
Object was in daylight at epoch
Visualization orbit readout
Latitude
Unknown
Longitude
Unknown
Altitude
Unknown
Speed
Unknown
Apparent Right ascension
Unknown
Apparent Declination
Unknown
Sunlit
N/A
Visualization observer readout
Local Sidereal Time
23:19:51
Azimuth
Unknown
Elevation
Unknown
Doppler factor
Unknown
Orbital elements
Apogee altitude
35,020.136 km
Perigee altitude
9,942.294 km
Semi-major axis
28,859.352 km
Eccentricity
0.43448
Inclination
12.1789°
RAAN
88.5109°
Arg. of periapsis
210.0375°
True anomaly
149.9085°
Mean anomaly
115.6332°
Eccentric anomaly
133.64678°
Mean motion
0.4427 °/min
Orbital period
813.18 mins
BSTAR
0
Loading maneuver chart data...
Computing Atmospheric mass density...

Documentation

Showing up to 5 results
|